Montpelier, VT

11:19 PM EST on November 11, 2019 (GMT -0500)
Knapp State

Weather History for KMPV - August, 2019

Change the Weather History Date:

Wednesday, August 28, 2019

  Actual Average Record
Temperature  
Mean Temperature 70 °F 64 °F  
Max Temperature 80 °F 75 °F 92 °F (1952)
Min Temperature 61 °F 52 °F 38 °F (1957)
Degree Days  
Heating Degree Days 0 3  
Month to date heating degree days 50 58  
Since 1 June heating degree days 203 219  
Since 1 July heating degree days 59 98  
Cooling Degree Days 6 2  
Month to date cooling degree days 52 72  
Year to date cooling degree days 210 240  
Since 1 June cooling degree days 209 230  
Growing Degree Days 20 (Base 50)    
Moisture  
Dew Point 60 °F    
Average Humidity 77    
Maximum Humidity 100    
Minimum Humidity 58    
Precipitation  
Precipitation 0.32 in 0.10 in 2.79 in (1971)
Month to date precipitation 4.23 3.71  
Year to date precipitation 34.78 24.50  
Sea Level Pressure  
Sea Level Pressure 29.92 in    
Wind  
Wind Speed 4 mph ()    
Max Wind Speed 18 mph    
Max Gust Speed 22 mph    
Visibility 9.3 miles    
Events Rain    
T = Trace of Precipitation, MM = Missing Value Source: Averaged Metar Reports

Daily Weather History Graph

Daily Weather History Graph

Search for Another Location

Airport or City:

Astronomy

Aug. 28, 2019 Rise Set
Actual Time 6:08 AM EDT 7:33 PM EDT
Civil Twilight 5:38 AM EDT 8:03 PM EDT
Nautical Twilight 5:01 AM EDT 8:40 PM EDT
Astronomical Twilight 4:22 AM EDT 9:18 PM EDT
Moon 3:30 AM EDT (8/28) 6:49 PM EDT (8/28)
Length of Visible Light 14h 25m
Length of Day
13h 25m
Waning Crescent, 5% of the Moon is Illuminated
Aug 28
Waning Crescent
Aug 30
New
Sep 5
First Quarter
Sep 14
Full
Sep 21
Last Quarter

Hourly Weather History & Observations

Time (EDT) Temp. Dew Point Humidity Pressure Visibility Wind Dir Wind Speed Gust Speed Precip Events Conditions
12:51 AM 62.1 °F 54.0 °F 75% 30.01 in 10.0 mi South 3.5 mph - N/A   Overcast
1:51 AM 62.1 °F 54.0 °F 75% 30.00 in 10.0 mi South 3.5 mph - N/A   Overcast
2:51 AM 63.0 °F 54.0 °F 72% 29.99 in 10.0 mi Calm Calm - N/A   Overcast
3:02 AM 62.1 °F 54.0 °F 75% 29.99 in 10.0 mi SSW 3.5 mph - N/A   Overcast
3:51 AM 62.1 °F 54.0 °F 75% 29.98 in 10.0 mi SSW 5.8 mph - N/A   Overcast
4:51 AM 62.1 °F 54.0 °F 75% 29.97 in 10.0 mi Variable 3.5 mph - N/A   Overcast
5:51 AM 62.1 °F 54.0 °F 75% 29.97 in 10.0 mi South 4.6 mph - N/A   Overcast
6:51 AM 62.1 °F 55.0 °F 78% 29.98 in 10.0 mi South 3.5 mph - N/A   Overcast
7:51 AM 64.0 °F 55.9 °F 75% 29.97 in 10.0 mi SSE 5.8 mph - N/A   Overcast
8:51 AM 70.0 °F 57.9 °F 65% 29.95 in 10.0 mi SE 8.1 mph - N/A   Partly Cloudy
9:51 AM 71.1 °F 59.0 °F 66% 29.95 in 10.0 mi South 6.9 mph - N/A   Scattered Clouds
10:51 AM 73.9 °F 61.0 °F 64% 29.94 in 10.0 mi Variable 4.6 mph - N/A   Overcast
11:51 AM 75.0 °F 62.1 °F 64% 29.91 in 10.0 mi South 12.7 mph - N/A   Overcast
12:51 PM 78.1 °F 63.0 °F 60% 29.90 in 10.0 mi South 12.7 mph - N/A   Mostly Cloudy
1:51 PM 77.0 °F 63.0 °F 62% 29.89 in 10.0 mi South 10.4 mph - N/A   Overcast
2:51 PM 78.1 °F 62.1 °F 58% 29.87 in 10.0 mi South 11.5 mph - N/A   Mostly Cloudy
3:51 PM 77.0 °F 63.0 °F 62% 29.86 in 10.0 mi SSW 4.6 mph - N/A   Overcast
4:51 PM 75.9 °F 63.0 °F 64% 29.85 in 10.0 mi South 5.8 mph - N/A   Overcast
5:51 PM 72.0 °F 61.0 °F 68% 29.85 in 10.0 mi South 5.8 mph - 0.00 in   Overcast
6:51 PM 71.1 °F 62.1 °F 73% 29.86 in 10.0 mi Variable 3.5 mph - 0.00 in   Overcast
7:51 PM 69.1 °F 63.0 °F 81% 29.88 in 10.0 mi West 4.6 mph - N/A   Overcast
8:40 PM 66.0 °F 64.9 °F 96% 29.90 in 7.0 mi NNW 6.9 mph - 0.02 in Rain Light Rain
8:51 PM 64.9 °F 64.9 °F 100% 29.89 in 6.0 mi Calm Calm - 0.03 in Rain Light Rain
9:12 PM 64.9 °F 64.0 °F 97% 29.90 in 7.0 mi Calm Calm - 0.02 in Rain Light Rain
9:47 PM 64.4 °F 64.4 °F 100% 29.89 in 10.0 mi Calm Calm - 0.03 in Rain Light Rain
9:51 PM 64.9 °F 64.0 °F 97% 29.88 in 10.0 mi Calm Calm - 0.04 in Rain Light Rain
10:51 PM 64.9 °F 64.0 °F 97% 29.88 in 10.0 mi Calm Calm - 0.01 in Rain Light Rain
11:41 PM 64.0 °F 64.0 °F 100% 29.88 in 6.0 mi WNW 4.6 mph - 0.09 in Rain Rain
11:51 PM 64.0 °F 63.0 °F 96% 29.86 in 4.0 mi WNW 4.6 mph - 0.13 in Rain Rain